AIB346 RPVM-RPMR

Flight info

Callsign AIB346
Flight time 0h 51m
Altitude 37000
Route DUMEX4P DUMEX W6A LUMVI W22 COT W19 MELBY MELBY3P
Aircraft A346/H-SDE2E3FGHIJ3J4J5M1RWXY/LB1D1

Departure

Time 2026-05-06 11:09
Airport Mactan Cebu International Airport (RPVM)

Arrival

Time 2026-05-06 12:00
Airport General Santos International Airport (RPMR)
Time Latitude Longitude Altitude Speed Heading
2026-05-06 10:44 10.31546 123.97989 47 ft 0 kts 314°
2026-05-06 10:57 10.31541 123.97994 42 ft 0 kts 314°
2026-05-06 10:57 10.31523 123.98013 42 ft 0 kts 314°
2026-05-06 10:57 10.31505 123.98032 45 ft 0 kts 309°
2026-05-06 10:57 10.31499 123.98049 43 ft 0 kts 269°
2026-05-06 10:58 10.31506 123.98066 42 ft 0 kts 230°
2026-05-06 10:58 10.31508 123.98068 42 ft 0 kts 224°
2026-05-06 11:02 10.31498 123.98053 47 ft 8 kts 235°
2026-05-06 11:02 10.31459 123.97999 47 ft 11 kts 232°
2026-05-06 11:02 10.31399 123.97935 47 ft 14 kts 225°
2026-05-06 11:02 10.31327 123.97902 47 ft 5 kts 162°
2026-05-06 11:03 10.31292 123.97928 47 ft 7 kts 136°
2026-05-06 11:03 10.31264 123.97955 47 ft 9 kts 136°
2026-05-06 11:03 10.31175 123.97957 45 ft 13 kts 217°
2026-05-06 11:03 10.31153 123.97936 47 ft 13 kts 225°
2026-05-06 11:04 10.31018 123.97801 46 ft 19 kts 225°
2026-05-06 11:04 10.30915 123.97698 47 ft 22 kts 224°
2026-05-06 11:04 10.30801 123.97583 47 ft 24 kts 224°
2026-05-06 11:04 10.30676 123.97460 46 ft 26 kts 224°
2026-05-06 11:05 10.30544 123.97328 47 ft 28 kts 225°
2026-05-06 11:05 10.30408 123.97189 46 ft 29 kts 225°
2026-05-06 11:05 10.30260 123.97040 47 ft 30 kts 224°
2026-05-06 11:05 10.30105 123.96884 46 ft 32 kts 225°
2026-05-06 11:06 10.30001 123.96780 47 ft 12 kts 225°
2026-05-06 11:06 10.29943 123.96722 47 ft 9 kts 220°
2026-05-06 11:06 10.29880 123.96716 46 ft 11 kts 156°
2026-05-06 11:06 10.29816 123.96775 45 ft 14 kts 135°
2026-05-06 11:07 10.29734 123.96858 42 ft 17 kts 134°
2026-05-06 11:07 10.29737 123.96922 41 ft 11 kts 45°
2026-05-06 11:07 10.29745 123.96930 42 ft 0 kts 45°
2026-05-06 11:08 10.29745 123.96931 42 ft 2 kts 45°
2026-05-06 11:08 10.29908 123.97094 41 ft 70 kts 44°
2026-05-06 11:08 10.30420 123.97608 45 ft 135 kts 44°
2026-05-06 11:09 10.31205 123.98398 223 ft 172 kts 44°
2026-05-06 11:09 10.32063 123.99269 893 ft 175 kts 45°
2026-05-06 11:09 10.32922 124.00127 1720 ft 172 kts 45°
2026-05-06 11:09 10.33684 124.01076 2284 ft 180 kts 68°
2026-05-06 11:10 10.33729 124.02405 2607 ft 203 kts 104°
2026-05-06 11:10 10.32993 124.03708 3004 ft 222 kts 122°
2026-05-06 11:10 10.32040 124.05031 3355 ft 243 kts 123°
2026-05-06 11:10 10.31001 124.06473 3759 ft 262 kts 123°
2026-05-06 11:11 10.29906 124.08014 4365 ft 273 kts 123°
2026-05-06 11:11 10.28792 124.09596 5169 ft 276 kts 123°
2026-05-06 11:11 10.27677 124.11184 6078 ft 276 kts 122°
2026-05-06 11:11 10.26562 124.12780 6932 ft 277 kts 122°
2026-05-06 11:12 10.25443 124.14391 7772 ft 279 kts 122°
2026-05-06 11:12 10.24320 124.16011 8604 ft 282 kts 122°
2026-05-06 11:12 10.23183 124.17649 9443 ft 284 kts 122°
2026-05-06 11:12 10.22038 124.19299 10215 ft 287 kts 122°
2026-05-06 11:13 10.20859 124.20985 10750 ft 300 kts 125°
2026-05-06 11:13 10.19247 124.22447 11058 ft 326 kts 147°
2026-05-06 11:13 10.17030 124.23201 11363 ft 350 kts 171°
2026-05-06 11:13 10.14530 124.23305 11712 ft 368 kts 176°
2026-05-06 11:14 10.11905 124.23345 12026 ft 386 kts 176°
2026-05-06 11:14 10.09175 124.23392 12455 ft 397 kts 176°
2026-05-06 11:14 10.06400 124.23448 13171 ft 400 kts 176°
2026-05-06 11:14 10.03603 124.23514 13864 ft 404 kts 176°
2026-05-06 11:15 10.00779 124.23587 14453 ft 408 kts 176°
2026-05-06 11:15 9.97933 124.23663 15039 ft 412 kts 176°
2026-05-06 11:15 9.95052 124.23743 15630 ft 416 kts 176°
2026-05-06 11:15 9.92141 124.23823 16210 ft 420 kts 176°
2026-05-06 11:16 9.89211 124.23905 16799 ft 424 kts 176°
2026-05-06 11:16 9.86245 124.23987 17384 ft 427 kts 176°
2026-05-06 11:16 9.83259 124.24071 17953 ft 431 kts 176°
2026-05-06 11:16 9.80253 124.24155 18461 ft 435 kts 176°
2026-05-06 11:17 9.77220 124.24238 18950 ft 438 kts 176°
2026-05-06 11:17 9.74159 124.24323 19453 ft 441 kts 176°
2026-05-06 11:17 9.71086 124.24408 19952 ft 444 kts 176°
2026-05-06 11:17 9.67991 124.24494 20442 ft 446 kts 176°
2026-05-06 11:18 9.64877 124.24581 20944 ft 449 kts 176°
2026-05-06 11:18 9.61743 124.24669 21422 ft 452 kts 176°
2026-05-06 11:18 9.58586 124.24757 21906 ft 455 kts 176°
2026-05-06 11:18 9.55410 124.24871 22383 ft 457 kts 174°
2026-05-06 11:19 9.52247 124.25220 22846 ft 459 kts 169°
2026-05-06 11:19 9.49110 124.25859 23322 ft 461 kts 164°
2026-05-06 11:19 9.46020 124.26769 23716 ft 463 kts 161°
2026-05-06 11:19 9.42953 124.27770 24101 ft 465 kts 160°
2026-05-06 11:20 9.39868 124.28794 24483 ft 468 kts 160°
2026-05-06 11:20 9.36771 124.29823 24880 ft 470 kts 160°
2026-05-06 11:20 9.33660 124.30850 25263 ft 472 kts 160°
2026-05-06 11:20 9.31548 124.31543 25520 ft 474 kts 160°
2026-05-06 11:21 9.27386 124.32904 25995 ft 478 kts 160°
2026-05-06 11:21 9.24215 124.33944 26358 ft 480 kts 160°
2026-05-06 11:21 9.21029 124.34987 26733 ft 483 kts 160°
2026-05-06 11:21 9.17831 124.36035 27098 ft 485 kts 161°
2026-05-06 11:22 9.14601 124.37096 27492 ft 487 kts 161°
2026-05-06 11:22 9.11365 124.38149 27848 ft 490 kts 161°
2026-05-06 11:22 9.09209 124.38851 28073 ft 491 kts 161°
2026-05-06 11:22 9.05956 124.39910 28578 ft 490 kts 161°
2026-05-06 11:23 9.01647 124.41314 29282 ft 488 kts 162°
2026-05-06 11:23 8.98423 124.42365 29790 ft 487 kts 162°
2026-05-06 11:23 8.95207 124.43412 30238 ft 486 kts 162°
2026-05-06 11:23 8.93034 124.44121 30532 ft 485 kts 162°
2026-05-06 11:24 8.88797 124.45501 31136 ft 483 kts 162°
2026-05-06 11:24 8.86635 124.46205 31451 ft 482 kts 162°
2026-05-06 11:25 8.73402 124.50520 33370 ft 476 kts 162°
2026-05-06 11:25 8.70466 124.51478 33801 ft 475 kts 162°
2026-05-06 11:25 8.67328 124.52501 34209 ft 473 kts 162°
2026-05-06 11:26 8.64197 124.53522 34630 ft 472 kts 162°
2026-05-06 11:26 8.61085 124.54537 35069 ft 469 kts 162°
2026-05-06 11:26 8.57983 124.55549 35523 ft 467 kts 162°
2026-05-06 11:26 8.54902 124.56554 35886 ft 466 kts 162°
2026-05-06 11:27 8.51830 124.57553 36159 ft 468 kts 163°
2026-05-06 11:27 8.48677 124.58391 36443 ft 469 kts 168°
2026-05-06 11:27 8.45461 124.58924 36742 ft 470 kts 173°
2026-05-06 11:27 8.42311 124.59150 36877 ft 472 kts 178°
2026-05-06 11:28 8.39092 124.59079 36875 ft 472 kts 184°
2026-05-06 11:28 8.32706 124.58016 36897 ft 473 kts 194°
2026-05-06 11:29 8.26626 124.56123 36894 ft 473 kts 197°
2026-05-06 11:29 8.20609 124.54161 36912 ft 473 kts 197°
2026-05-06 11:30 8.14361 124.52140 36905 ft 473 kts 197°
2026-05-06 11:30 8.09188 124.50479 36921 ft 472 kts 197°
2026-05-06 11:31 8.01884 124.48137 36917 ft 471 kts 197°
2026-05-06 11:31 7.95636 124.46132 36932 ft 472 kts 197°
2026-05-06 11:32 7.89377 124.44119 36935 ft 473 kts 197°
2026-05-06 11:32 7.83114 124.42108 36930 ft 473 kts 197°
2026-05-06 11:33 7.76840 124.40098 36930 ft 473 kts 197°
2026-05-06 11:33 7.70559 124.38086 36917 ft 472 kts 197°
2026-05-06 11:34 7.64286 124.36078 36903 ft 473 kts 197°
2026-05-06 11:34 7.58020 124.34071 36602 ft 473 kts 197°
2026-05-06 11:34 7.55945 124.33407 36248 ft 473 kts 197°
2026-05-06 11:35 7.52819 124.32408 35659 ft 474 kts 197°
2026-05-06 11:35 7.50733 124.31740 35220 ft 475 kts 197°
2026-05-06 11:36 7.36403 124.27164 32277 ft 479 kts 197°
2026-05-06 11:36 7.33226 124.26151 31603 ft 481 kts 197°
2026-05-06 11:36 7.30028 124.25130 30896 ft 483 kts 197°
2026-05-06 11:37 7.28949 124.24787 30658 ft 484 kts 197°
2026-05-06 11:38 7.13394 124.23656 27180 ft 480 kts 149°
2026-05-06 11:38 7.10726 124.25621 26757 ft 472 kts 139°
2026-05-06 11:38 7.08195 124.27713 26282 ft 468 kts 140°
2026-05-06 11:38 7.05701 124.29773 25847 ft 464 kts 139°
2026-05-06 11:39 7.03211 124.31817 25365 ft 460 kts 139°
2026-05-06 11:39 7.02370 124.32504 25220 ft 459 kts 139°
2026-05-06 11:40 6.93551 124.39676 23590 ft 448 kts 139°
2026-05-06 11:40 6.91128 124.41643 23094 ft 445 kts 139°
2026-05-06 11:40 6.88732 124.43585 22688 ft 439 kts 140°
2026-05-06 11:40 6.86378 124.45491 22249 ft 432 kts 140°
2026-05-06 11:41 6.84055 124.47371 21834 ft 424 kts 140°
2026-05-06 11:41 6.81782 124.49211 21335 ft 416 kts 140°
2026-05-06 11:41 6.79549 124.51018 20871 ft 407 kts 139°
2026-05-06 11:41 6.77372 124.52780 20442 ft 399 kts 139°
2026-05-06 11:42 6.75233 124.54511 20011 ft 391 kts 139°
2026-05-06 11:42 6.73127 124.56216 19624 ft 383 kts 139°
2026-05-06 11:42 6.71069 124.57881 19221 ft 376 kts 139°
2026-05-06 11:42 6.69065 124.59502 18840 ft 369 kts 139°
2026-05-06 11:43 6.67139 124.61059 18483 ft 362 kts 139°
2026-05-06 11:43 6.65193 124.62584 18227 ft 356 kts 141°
2026-05-06 11:43 6.63234 124.64066 17906 ft 351 kts 141°
2026-05-06 11:44 6.59377 124.66971 17269 ft 342 kts 141°
2026-05-06 11:44 6.57492 124.68396 16956 ft 337 kts 141°
2026-05-06 11:44 6.55633 124.69804 16546 ft 332 kts 141°
2026-05-06 11:44 6.53789 124.71202 16095 ft 330 kts 141°
2026-05-06 11:45 6.51963 124.72587 15785 ft 328 kts 141°
2026-05-06 11:45 6.50140 124.73970 15373 ft 328 kts 141°
2026-05-06 11:45 6.48331 124.75343 15096 ft 325 kts 141°
2026-05-06 11:45 6.46529 124.76710 14739 ft 323 kts 141°
2026-05-06 11:46 6.44738 124.78069 14395 ft 322 kts 141°
2026-05-06 11:46 6.42961 124.79416 14057 ft 320 kts 141°
2026-05-06 11:46 6.41193 124.80758 13718 ft 318 kts 140°
2026-05-06 11:46 6.39514 124.82200 13332 ft 315 kts 134°
2026-05-06 11:47 6.38012 124.83773 12958 ft 312 kts 128°
2026-05-06 11:47 6.36674 124.85487 12585 ft 310 kts 123°
2026-05-06 11:47 6.35440 124.87258 12206 ft 308 kts 122°
2026-05-06 11:47 6.34227 124.89026 11839 ft 306 kts 122°
2026-05-06 11:48 6.33015 124.90787 11465 ft 305 kts 122°
2026-05-06 11:48 6.31808 124.92531 11120 ft 303 kts 122°
2026-05-06 11:48 6.30572 124.94234 10856 ft 301 kts 126°
2026-05-06 11:48 6.29244 124.95871 10692 ft 302 kts 128°
2026-05-06 11:49 6.27887 124.97487 10544 ft 302 kts 128°
2026-05-06 11:49 6.26529 124.99101 10436 ft 302 kts 128°
2026-05-06 11:49 6.25170 125.00714 10320 ft 302 kts 128°
2026-05-06 11:49 6.23823 125.02316 10219 ft 302 kts 128°
2026-05-06 11:50 6.22461 125.03938 10146 ft 302 kts 128°
2026-05-06 11:50 6.21105 125.05551 10047 ft 302 kts 128°
2026-05-06 11:50 6.19747 125.07166 9753 ft 301 kts 128°
2026-05-06 11:50 6.18400 125.08770 9413 ft 299 kts 128°
2026-05-06 11:51 6.17512 125.09826 9191 ft 298 kts 128°
2026-05-06 11:51 6.16177 125.11415 8842 ft 297 kts 128°
2026-05-06 11:51 6.14849 125.12994 8504 ft 295 kts 128°
2026-05-06 11:51 6.13954 125.14059 8291 ft 293 kts 128°
2026-05-06 11:52 6.12641 125.15620 7981 ft 291 kts 128°
2026-05-06 11:53 6.04804 125.19058 6604 ft 288 kts 174°
2026-05-06 11:53 6.02817 125.19268 6308 ft 286 kts 173°
2026-05-06 11:53 6.00843 125.19490 5999 ft 285 kts 173°
2026-05-06 11:53 5.98882 125.19720 5704 ft 283 kts 173°
2026-05-06 11:54 5.96936 125.19953 5399 ft 282 kts 172°
2026-05-06 11:54 5.94996 125.20190 5108 ft 280 kts 172°
2026-05-06 11:54 5.93064 125.20425 4815 ft 278 kts 172°
2026-05-06 11:54 5.91141 125.20598 4481 ft 277 kts 183°
2026-05-06 11:55 5.89341 125.19982 4117 ft 275 kts 217°
2026-05-06 11:55 5.88140 125.18534 3813 ft 270 kts 247°
2026-05-06 11:55 5.87729 125.16713 3544 ft 265 kts 264°
2026-05-06 11:55 5.87551 125.14923 3497 ft 251 kts 265°
2026-05-06 11:56 5.87550 125.13217 3431 ft 238 kts 288°
2026-05-06 11:56 5.88438 125.11913 3365 ft 224 kts 328°
2026-05-06 11:56 5.89862 125.11424 3329 ft 213 kts 353°
2026-05-06 11:56 5.91295 125.11292 3213 ft 202 kts 355°
2026-05-06 11:57 5.92644 125.11168 3031 ft 187 kts 355°
2026-05-06 11:57 5.93898 125.11043 2753 ft 176 kts 355°
2026-05-06 11:57 5.95085 125.10916 2480 ft 167 kts 354°
2026-05-06 11:57 5.96226 125.10786 2250 ft 165 kts 353°
2026-05-06 11:58 5.97366 125.10656 2031 ft 164 kts 354°
2026-05-06 11:58 5.98501 125.10535 1818 ft 164 kts 353°
2026-05-06 11:58 5.99634 125.10399 1595 ft 163 kts 352°
2026-05-06 11:58 6.00014 125.10349 1503 ft 163 kts 352°
2026-05-06 11:59 6.01880 125.10104 1076 ft 161 kts 353°
2026-05-06 11:59 6.02989 125.09962 831 ft 161 kts 353°
2026-05-06 11:59 6.04096 125.09828 616 ft 160 kts 353°
2026-05-06 11:59 6.05138 125.09701 523 ft 129 kts 353°
2026-05-06 12:00 6.05852 125.09614 522 ft 77 kts 353°
2026-05-06 12:00 6.06230 125.09567 525 ft 45 kts 353°
2026-05-06 12:00 6.06531 125.09530 524 ft 41 kts 353°
2026-05-06 12:00 6.06810 125.09496 522 ft 40 kts 353°
2026-05-06 12:01 6.07051 125.09466 521 ft 27 kts 353°
2026-05-06 12:01 6.07159 125.09453 521 ft 11 kts 353°
2026-05-06 12:01 6.07219 125.09447 520 ft 5 kts 10°
2026-05-06 12:01 6.07245 125.09481 520 ft 8 kts 68°
2026-05-06 12:02 6.07257 125.09544 521 ft 10 kts 86°
2026-05-06 12:02 6.07223 125.09606 522 ft 12 kts 152°
2026-05-06 12:02 6.07182 125.09612 522 ft 9 kts 192°